Location: Arroyo de Valdeoliva
(40.1604°N, 4.9878°W)
Time: 04:18:36
(UTC+00:00)

Spot 4 Rocket - Pass Details

Date: 11 December 2025
Orbit: 769 x 773 km, 98.8° (Epoch: 13 January)

Event Time Altitude Azimuth Distance (km) Brightness Sun altitude
Rises 18:15:22 0° 147° (SSE) 3,230 7.1 -15.0°
Reaches altitude 10° 18:17:45 10° 140° (SE) 2,308 6.3 -15.4°
Maximum altitude 18:22:33 44° 70° (ENE) 1,067 4.3 -16.3°
Drops below altitude 10° 18:27:22 10° 360° (N) 2,325 6.3 -17.2°
Sets 18:29:47 0° 354° (N) 3,257 7.2 -17.6°
